This is the latest recevied weather packets stored in our database for station/object EA5JUX. If no packets are shown the sender has not sent any weather packets the latest 10 day(s).
| Time | Temp. | Humidity | Pressure | Rain* | Wind** | Luminosity | Snow |
|---|---|---|---|---|---|---|---|
| 1787644902 | 27.78° C | 51% | 1013.9 hPa | 0 mm | - | - | - |
| 1787644611 | 27.78° C | 51% | 1013.7 hPa | 0 mm | - | - | - |
| 1787644321 | 27.78° C | 54% | 1013.8 hPa | 0 mm | - | - | - |
| 1787644002 | 26.67° C | 59% | 1014 hPa | 0 mm | - | - | - |
| 1787643702 | 26.11° C | 62% | 1014.2 hPa | 0 mm | - | - | - |
| 1787643402 | 25.56° C | 62% | 1013.8 hPa | 0 mm | - | - | - |
| 1787643103 | 25.56° C | 62% | 1013.8 hPa | 0 mm | - | - | - |
| 1787642802 | 25.56° C | 62% | 1014.7 hPa | 0 mm | - | - | - |
| 1787642502 | 25° C | 61% | 1013.2 hPa | 0 mm | - | - | - |
| 1787642202 | 25° C | 64% | 1013.6 hPa | 0 mm | - | - | - |
| 1787641902 | 24.44° C | 65% | 1014.1 hPa | 0 mm | - | - | - |
| 1787641601 | 24.44° C | 65% | 1014.4 hPa | 0 mm | - | - | - |
| 1787641309 | 24.44° C | 66% | 1014.2 hPa | 0 mm | - | - | - |
| 1787641002 | 24.44° C | 67% | 1013.9 hPa | 0 mm | - | - | - |
| 1787640702 | 23.89° C | 68% | 1014 hPa | 0 mm | - | - | - |
| 1787640402 | 23.89° C | 69% | 1013.9 hPa | 0 mm | - | - | - |
| 1787640102 | 23.33° C | 69% | 1014 hPa | 0 mm | - | - | - |
| 1787639802 | 23.33° C | 69% | 1013.9 hPa | 0 mm | - | - | - |
| 1787639502 | 23.33° C | 69% | 1013.9 hPa | 0 mm | - | - | - |
| 1787639218 | 23.33° C | 70% | 1013.9 hPa | 0 mm | - | - | - |
| 1787638903 | 23.33° C | 70% | 1013.4 hPa | 0 mm | - | - | - |
| 1787638614 | 23.33° C | 69% | 1013.3 hPa | 0 mm | - | - | - |
| 1787638315 | 23.33° C | 68% | 1013.6 hPa | 0 mm | - | - | - |
| 1787638002 | 23.33° C | 69% | 1013.5 hPa | 0 mm | - | - | - |
| 1787637702 | 22.78° C | 70% | 1013.4 hPa | 0 mm | - | - | - |
* Rain latest hour (hover to see other rain measurements)
** Current wind speed in m/s (hover to see current wind gust speed)